Skip Page Navigation
NASA JPL Caltech
NASA Logo - Jet Propulsion Laboratory + View the NASA Portal
+ Center for Near-Earth Object Studies
JPL Home Earth Solar System Stars & Galaxies Technology
JPL Solar System Dynamics
BODIES ORBITS EPHEMERIDES TOOLS PHYSICAL DATA DISCOVERY FAQ SITE MAP
JPL Small-Body Database Browser
Search: [ help ]  
120674 (1997 AV7)
Classification: Main-belt Asteroid          SPK-ID: 2120674
Ephemeris | Orbit Diagram | Orbital Elements | Mission Design | Physical Parameters | Discovery Circumstances | Close-Approach Data ]

[ show orbit diagram ]
Orbital Elements at Epoch 2459200.5 (2020-Dec-17.0) TDB
Reference: JPL 14 (heliocentric ecliptic J2000)
 Element Value Uncertainty (1-sigma)   Units 
e .06491983486976002 5.0888e-08  
a 2.752870273133659 2.0726e-08 au
q 2.57415438958395 1.3762e-07 au
i 3.251025024569582 5.6863e-06 deg
node 275.5186566578456 0.00012484 deg
peri 180.4699534506763 0.00013841 deg
M 111.3912790956536 5.8814e-05 deg
tp 2458684.290804996849
(2019-Jul-19.79080500)
0.00027158 TDB
period 1668.311125519568
4.57
1.8841e-05
5.158e-08
d
yr
n .2157870882074733 2.437e-09 deg/d
Q 2.931586156683367 2.2072e-08 au
  Orbit Determination Parameters
   # obs. used (total)      301  
   data-arc span      8511 days (23.30 yr)  
   first obs. used      1997-01-02  
   last obs. used      2020-04-22  
   planetary ephem.      DE431  
   SB-pert. ephem.      SB431-N16  
   condition code      0  
   norm. resid. RMS      .61189  
   source      ORB  
   producer      Otto Matic  
   solution date      2020-May-20 20:39:27  

Additional Information
 Earth MOID = 1.59073 au 
 Jupiter MOID = 2.17729 au 
 T_jup = 3.339 
[ show covariance matrix ]

Ephemeris | Orbit Diagram | Orbital Elements | Mission Design | Physical Parameters | Discovery Circumstances | Close-Approach Data ]

Physical Parameter Table
Parameter Symbol Value Units Sigma Reference Notes
absolute magnitude H 16.2   n/a MPO469251  

120674 (1997 AV7)          Discovered 1997-Jan-02 by Spacewatch at Kitt Peak
Reference: 20060314/Numbers.arcLast Updated: 2006-03-23

[ show close-approach data ]
Alternate Designations
 1997 AV7 = 2000 WE89 
Ephemeris | Orbit Diagram | Orbital Elements | Mission Design | Physical Parameters | Discovery Circumstances | Close-Approach Data ]
ABOUT SSD CREDITS/AWARDS PRIVACY/COPYRIGHT GLOSSARY LINKS
FirstGov 2021-Mar-08 13:46 UT
(server date/time)  
NASA Home Page
Site Manager:   Ryan S. Park
Webmaster  Alan B. Chamberlin